WX4MMM Weather Reports


Display with metric or nautical units.
time (UTC)temp
F
wind
direction
speed
MPH
gust
MPH
rain 1hr
in
rain 24hr
in
rain mn
in
humidity
%
barometer
mb
20260508093004 49 209 0.0 0.0 0.00 0.30 0.00 97 1014.8
20260508092504 49 209 0.0 0.0 0.00 0.30 0.00 97 1014.9
20260508092004 49 209 0.0 0.0 0.00 0.30 0.00 97 1014.8
20260508091503 49 209 0.0 0.0 0.00 0.30 0.00 97 1014.9
20260508091003 49 209 0.0 1.0 0.00 0.30 0.00 97 1014.7
20260508090504 49 192 0.0 1.0 0.00 0.30 0.00 97 1014.6
20260508090004 49 198 0.0 0.0 0.00 0.30 0.00 97 1014.6
20260508085504 49 198 1.0 2.0 0.00 0.30 0.00 97 1014.5
20260508085004 49 56 1.0 2.0 0.00 0.30 0.00 97 1014.5
20260508084004 49 163 1.0 3.0 0.00 0.30 0.00 97 1014.4
20260508083503 49 175 0.0 0.0 0.00 0.30 0.00 97 1014.4
20260508083004 49 175 0.0 0.0 0.00 0.30 0.00 97 1014.3
20260508082503 50 175 0.0 1.0 0.00 0.30 0.00 97 1014.3
20260508082004 50 167 0.0 1.0 0.00 0.35 0.00 97 1014.2
20260508081504 50 226 0.0 1.0 0.00 0.35 0.00 97 1014.3
20260508080004 50 24 0.0 0.0 0.00 0.35 0.00 97 1014.0
20260508075503 51 24 0.0 1.0 0.00 0.35 0.00 97 1013.9
20260508075004 51 206 0.0 2.0 0.00 0.35 0.00 97 1014.0
20260508074503 51 114 0.0 0.0 0.00 0.35 0.00 97 1013.9
20260508074004 51 212 0.0 2.0 0.00 0.35 0.00 97 1013.9
20260508073504 51 124 0.0 2.0 0.00 0.35 0.00 97 1013.8
20260508073003 52 110 0.0 1.0 0.00 0.35 0.00 97 1013.8
20260508072503 52 114 0.0 0.0 0.00 0.35 0.00 97 1013.7
20260508072005 52 114 0.0 0.0 0.00 0.44 0.00 97 1013.7
20260508071504 52 111 0.0 0.0 0.00 0.46 0.00 97 1013.7
20260508071004 52 3 0.0 1.0 0.00 0.48 0.00 97 1013.5
20260508070503 52 91 0.0 1.0 0.00 0.51 0.00 97 1013.5
20260508070004 52 189 0.0 1.0 0.00 0.51 0.00 97 1013.4
20260508065504 52 93 0.0 1.0 0.00 0.52 0.00 97 1013.5
20260508065004 52 130 0.0 1.0 0.00 0.54 0.00 97 1013.5
20260508064504 51 60 0.0 1.0 0.00 0.56 0.00 97 1013.5
20260508064004 51 92 1.0 1.0 0.00 0.57 0.00 97 1013.4
20260508063503 51 164 0.0 1.0 0.00 0.58 0.00 97 1013.5
20260508063004 51 198 1.0 2.0 0.00 0.59 0.00 97 1013.5
20260508062504 51 282 0.0 1.0 0.00 0.60 0.00 96 1013.5
20260508062004 52 138 0.0 1.0 0.00 0.60 0.00 96 1013.5
20260508061503 52 144 0.0 1.0 0.00 0.61 0.00 96 1013.7
20260508061003 52 73 0.0 0.0 0.00 0.61 0.00 96 1013.6
20260508060504 52 37 1.0 1.0 0.00 0.61 0.00 96 1013.6
20260508055504 53 184 0.0 1.0 0.00 0.74 0.00 96 1013.5
20260508055004 53 333 0.0 0.0 0.00 0.74 0.00 96 1013.6
20260508054504 53 332 0.0 1.0 0.00 0.74 0.00 97 1013.5
20260508053504 53 83 0.0 0.0 0.00 0.74 0.00 97 1013.5
20260508053004 53 105 0.0 0.0 0.00 0.74 0.00 97 1013.5
20260508052504 53 141 0.0 1.0 0.00 0.75 0.00 96 1013.3
20260508052004 53 118 0.0 1.0 0.00 0.75 0.00 96 1013.4
20260508051504 53 117 0.0 1.0 0.00 0.76 0.00 97 1013.4
20260508050504 53 113 0.0 1.0 0.00 0.77 0.00 97 1013.3
20260508050003 53 82 0.0 1.0 0.00 0.77 0.00 96 1013.3
20260508045004 53 102 1.0 1.0 0.00 0.77 0.00 96 1013.4
20260508044003 53 187 1.0 1.0 0.00 0.77 0.00 96 1013.3
20260508043503 53 283 0.0 1.0 0.00 0.77 0.00 96 1013.4
20260508041004 53 234 1.0 1.0 0.00 0.77 0.00 96 1013.1
20260508040504 53 90 0.0 1.0 0.00 0.77 0.00 96 1013.1
20260508040004 53 146 1.0 1.0 0.00 0.77 0.00 96 1013.0
20260508035004 53 95 0.0 1.0 0.00 0.77 0.58 96 1012.9
20260508034503 53 131 1.0 2.0 0.00 0.77 0.58 96 1012.8
20260508034004 53 278 0.0 1.0 0.00 0.77 0.58 96 1013.0
20260508033503 53 156 0.0 1.0 0.00 0.77 0.58 96 1012.9
20260508032503 53 0 0.0 1.0 0.00 0.77 0.58 96 1012.8
20260508032003 53 26 0.0 1.0 0.00 0.77 0.58 96 1012.9
20260508031504 54 28 0.0 0.0 0.00 0.77 0.58 96 1012.9
20260508030004 54 152 1.0 1.0 0.00 0.77 0.58 96 1012.7
20260508025504 54 137 1.0 2.0 0.00 0.77 0.58 96 1012.7
20260508024507 54 26 0.0 1.0 0.00 0.77 0.58 96 1012.4
20260508024004 54 81 0.0 0.0 0.00 0.77 0.58 96 1012.3
20260508023003 54 97 0.0 1.0 0.00 0.77 0.58 96 1012.3
20260508022504 54 162 1.0 2.0 0.00 0.77 0.58 96 1012.2
20260508022004 54 72 1.0 1.0 0.00 0.77 0.58 96 1012.1
20260508021504 54 164 0.0 0.0 0.00 0.77 0.58 96 1012.1
20260508020004 54 118 0.0 1.0 0.00 0.77 0.58 96 1012.1
20260508015503 54 137 0.0 1.0 0.00 0.77 0.58 96 1012.0
20260508015004 54 105 0.0 0.0 0.00 0.77 0.58 96 1011.9
20260508014504 54 105 0.0 0.0 0.00 0.77 0.58 96 1011.7
20260508014004 54 105 0.0 0.0 0.00 0.77 0.58 96 1011.5
20260508013503 54 105 0.0 1.0 0.00 0.77 0.58 96 1011.5
20260508012004 54 177 0.0 1.0 0.00 0.77 0.58 95 1011.5
20260508011507 54 81 0.0 0.0 0.00 0.77 0.58 95 1011.5
20260508011004 54 144 0.0 0.0 0.00 0.77 0.58 95 1011.6
20260508010012 54 33 1.0 2.0 0.00 0.77 0.58 95 1011.3
20260508005004 54 139 0.0 1.0 0.00 0.77 0.58 95 1011.2
20260508004504 54 147 0.0 2.0 0.00 0.77 0.58 95 1011.2
20260508004004 54 200 0.0 2.0 0.00 0.77 0.58 95 1011.0
20260508003503 54 12 1.0 2.0 0.00 0.77 0.58 95 1010.9
20260508002504 54 348 0.0 1.0 0.03 0.77 0.58 95 1010.9
20260508001503 55 116 0.0 1.0 0.03 0.77 0.58 95 1010.8
20260508001004 55 136 1.0 1.0 0.03 0.77 0.58 94 1011.0
20260508000503 55 132 0.0 1.0 0.03 0.77 0.58 94 1011.0
20260508000004 55 355 0.0 0.0 0.03 0.77 0.58 94 1011.0
20260507235503 55 355 0.0 2.0 0.03 0.77 0.58 94 1010.8
20260507235003 55 174 0.0 1.0 0.03 0.77 0.58 94 1010.7
20260507234503 55 0 1.0 1.0 0.03 0.77 0.58 94 1010.6
20260507234004 55 321 0.0 1.0 0.03 0.77 0.58 94 1010.7
20260507233503 55 291 0.0 1.0 0.03 0.77 0.58 94 1010.6
20260507233004 55 195 0.0 2.0 0.03 0.77 0.58 94 1010.4
20260507232504 55 309 1.0 2.0 0.00 0.73 0.55 94 1010.1
20260507232004 55 28 1.0 2.0 0.00 0.73 0.55 94 1010.0
20260507231504 55 167 1.0 2.0 0.00 0.73 0.55 94 1009.9
20260507231004 55 283 0.0 1.0 0.00 0.73 0.55 94 1009.9
20260507230504 55 190 1.0 3.0 0.00 0.73 0.55 94 1009.8
20260507230003 55 210 0.0 2.0 0.00 0.73 0.55 94 1009.9
20260507225504 55 187 2.0 5.0 0.00 0.73 0.55 93 1010.0
20260507225003 55 178 2.0 5.0 0.00 0.73 0.55 93 1009.9
20260507224504 55 0 1.0 2.0 0.00 0.73 0.55 94 1009.9
20260507224004 55 125 1.0 3.0 0.00 0.73 0.55 94 1009.9
20260507223504 55 52 1.0 3.0 0.00 0.73 0.55 94 1009.8
20260507223003 55 109 1.0 3.0 0.00 0.73 0.55 94 1009.7
20260507222503 55 53 1.0 2.0 0.00 0.73 0.55 94 1009.9
20260507221504 55 31 0.0 1.0 0.00 0.74 0.55 94 1010.3
20260507220504 56 51 1.0 2.0 0.00 0.74 0.55 94 1010.4
20260507220004 56 203 0.0 2.0 0.00 0.74 0.55 94 1010.2
20260507215503 56 278 1.0 3.0 0.00 0.74 0.55 94 1010.0
20260507215004 56 127 0.0 2.0 0.00 0.74 0.55 94 1009.9
20260507214504 55 179 0.0 2.0 0.00 0.74 0.55 94 1009.8
20260507214004 55 52 1.0 2.0 0.00 0.74 0.55 95 1009.7
20260507213503 55 346 1.0 2.0 0.00 0.74 0.55 94 1009.9
20260507212504 55 356 1.0 2.0 0.00 0.74 0.55 94 1009.8
20260507212004 55 203 1.0 2.0 0.00 0.74 0.55 94 1009.7
20260507211504 55 50 1.0 2.0 0.00 0.75 0.55 94 1009.6
20260507211005 55 339 1.0 2.0 0.00 0.75 0.55 94 1009.7
20260507210504 55 77 1.0 2.0 0.00 0.75 0.55 94 1009.9
20260507210004 55 254 2.0 3.0 0.01 0.76 0.55 94 1009.9
20260507205504 55 125 0.0 1.0 0.01 0.77 0.55 95 1009.7
20260507204504 55 81 0.0 2.0 0.01 0.81 0.55 95 1009.4
20260507204005 56 44 1.0 1.0 0.01 0.82 0.55 95 1009.4
20260507184003 56 80 1.0 3.0 0.01 0.82 0.55 95 1009.5
20260507183503 57 55 0.0 3.0 0.01 0.83 0.55 95 1009.3
20260507183003 57 137 1.0 3.0 0.01 0.83 0.55 95 1009.2
20260507182504 57 296 1.0 3.0 0.01 0.83 0.55 95 1009.0
20260507182003 57 286 1.0 3.0 0.01 0.83 0.55 95 1008.7
20260507181504 57 346 1.0 3.0 0.01 0.83 0.55 95 1009.0
20260507181003 57 351 1.0 2.0 0.01 0.83 0.55 95 1009.1
20260507180503 57 102 2.0 3.0 0.02 0.83 0.55 95 1009.2
20260507180004 58 274 2.0 5.0 0.01 0.82 0.54 95 1009.1
20260507175503 58 16 2.0 2.0 0.01 0.82 0.54 95 1008.6
20260507175004 58 11 2.0 6.0 0.03 0.82 0.54 95 1008.8
20260507174503 58 299 1.0 2.0 0.03 0.82 0.54 95 1010.0
20260507173503 58 333 1.0 2.0 0.03 0.82 0.53 95 1009.7
20260507173004 59 23 1.0 2.0 0.03 0.82 0.54 95 1009.2
20260507172003 59 295 1.0 3.0 0.04 0.82 0.54 94 1008.9
20260507170004 60 119 1.0 3.0 0.05 0.82 0.53 94 1008.2
20260507165503 61 23 2.0 2.0 0.04 0.81 0.53 94 1008.4
20260507165004 62 58 1.0 2.0 0.03 0.80 0.51 93 1008.7
20260507164504 63 297 1.0 2.0 0.04 0.80 0.51 93 1008.4
20260507164004 64 111 2.0 3.0 0.04 0.80 0.51 93 1008.6
20260507163503 66 2 1.0 5.0 0.04 0.80 0.51 94 1008.8
20260507162504 67 211 0.0 0.0 0.09 0.80 0.50 95 1009.0
20260507162003 67 231 0.0 2.0 0.08 0.79 0.49 95 1009.2
20260507160504 67 151 0.0 1.0 0.08 0.78 0.49 96 1009.0
20260507160004 67 256 1.0 2.0 0.07 0.78 0.48 96 1009.4
20260507155003 67 33 1.0 1.0 0.07 0.78 0.48 96 1009.1
20260507153005 67 165 0.0 1.0 0.04 0.71 0.41 96 1008.8
20260507152004 67 352 0.0 1.0 0.05 0.71 0.41 96 1009.0
20260507151504 67 319 0.0 1.0 0.06 0.71 0.41 96 1009.0
20260507151004 67 176 0.0 0.0 0.06 0.71 0.41 96 1009.0
20260507150503 67 176 0.0 0.0 0.06 0.71 0.41 96 1009.0
20260507150003 67 176 0.0 1.0 0.06 0.71 0.41 96 1009.0
20260507145503 67 127 0.0 0.0 0.06 0.71 0.41 96 1008.9
20260507144503 67 177 0.0 1.0 0.08 0.71 0.41 96 1009.2
20260507144003 67 159 0.0 1.0 0.06 0.69 0.39 96 1009.1
20260507143503 67 157 1.0 1.0 0.05 0.68 0.38 96 1009.0
20260507143003 67 330 0.0 1.0 0.04 0.67 0.37 96 1009.0
20260507142504 67 143 1.0 2.0 0.04 0.66 0.37 97 1009.0
20260507142004 67 164 1.0 2.0 0.03 0.66 0.36 97 1009.1
20260507141503 67 168 0.0 2.0 0.02 0.65 0.36 97 1009.2
20260507140503 67 208 1.0 2.0 0.03 0.64 0.35 97 1009.0
20260507140003 67 118 1.0 2.0 0.03 0.64 0.35 97 1009.1
20260507135503 67 165 1.0 2.0 0.03 0.64 0.35 97 1009.2
20260507134504 67 167 1.0 3.0 0.03 0.62 0.33 97 1009.6
20260507134003 67 146 1.0 2.0 0.03 0.62 0.33 97 1009.5
20260507133504 67 169 2.0 2.0 0.03 0.62 0.33 97 1009.6
20260507133003 66 170 1.0 2.0 0.03 0.62 0.33 97 1009.5
20260507131503 66 168 0.0 3.0 0.04 0.62 0.33 97 1009.3
20260507130503 66 200 1.0 2.0 0.03 0.61 0.32 97 1009.4
20260507125003 66 319 1.0 1.0 0.01 0.59 0.31 97 1009.7
20260507124504 66 161 1.0 2.0 0.01 0.59 0.31 97 1009.7
20260507124003 66 198 1.0 2.0 0.01 0.59 0.31 97 1009.6
20260507123503 65 74 0.0 0.0 0.01 0.59 0.30 97 1009.6
20260507123004 65 74 0.0 0.0 0.01 0.59 0.30 97 1009.6
20260507122503 65 74 0.0 1.0 0.01 0.59 0.30 97 1009.6
20260507122004 65 98 0.0 0.0 0.01 0.58 0.30 97 1009.5
20260507121504 65 97 0.0 1.0 0.01 0.58 0.30 96 1009.5
20260507121004 65 130 0.0 1.0 0.01 0.58 0.30 97 1009.6
20260507120004 65 79 0.0 0.0 0.01 0.58 0.30 96 1009.9
20260507115504 65 79 0.0 1.0 0.01 0.58 0.30 97 1009.8
20260507115003 65 46 1.0 2.0 0.01 0.58 0.30 96 1009.5
20260507114504 65 92 0.0 1.0 0.01 0.58 0.30 97 1009.9
20260507113504 65 211 0.0 1.0 0.00 0.58 0.29 96 1010.0
20260507112504 65 119 0.0 1.0 0.00 0.58 0.29 96 1010.0
20260507112003 65 278 0.0 2.0 0.00 0.58 0.29 96 1010.0
20260507111504 65 226 0.0 1.0 0.00 0.58 0.29 96 1010.0
20260507110503 65 222 0.0 1.0 0.00 0.58 0.29 96 1010.0
20260507110004 65 344 0.0 0.0 0.00 0.58 0.29 96 1009.7
20260507105504 65 273 0.0 1.0 0.00 0.58 0.29 96 1009.6
20260507105004 65 175 0.0 1.0 0.00 0.58 0.29 96 1009.6
20260507104504 65 27 0.0 1.0 0.00 0.58 0.29 96 1009.5
20260507104003 65 70 1.0 2.0 0.00 0.58 0.29 96 1009.5
20260507103504 64 354 0.0 1.0 0.00 0.58 0.29 96 1009.6
20260507103004 64 231 0.0 1.0 0.00 0.58 0.29 96 1009.6
20260507102004 64 268 1.0 1.0 0.00 0.58 0.29 96 1009.5
20260507101503 64 87 1.0 1.0 0.00 0.58 0.29 96 1009.5
20260507100004 64 262 0.0 1.0 0.00 0.58 0.29 96 1009.5
20260507095503 64 148 0.0 2.0 0.00 0.58 0.29 96 1009.5
20260507095003 64 329 0.0 1.0 0.00 0.58 0.29 96 1009.5
20260507094004 64 113 0.0 1.0 0.00 0.58 0.29 96 1009.7
20260507093503 64 329 0.0 1.0 0.00 0.58 0.29 96 1009.6